{"data":{"norad_id":67319,"epoch":"2026-05-24T17:05:35.788992Z","epoch_age_seconds":95919,"freshness":"FRESH","line1":"1 67319U 26002Q   26144.71221978  .00015183  00000+0  55981-3 0  9998","line2":"2 67319  43.0022 256.1028 0001452 265.8660  94.2026 15.27599306 22765","mean_motion":15.27599306,"eccentricity":0.0001452,"inclination_deg":43.0022,"raan_deg":256.1028,"arg_perigee_deg":265.866,"mean_anomaly_deg":94.2026,"bstar":0.00055981,"rev_number":2276,"period_min":94.265557358141,"perigee_km":481.99505171184,"apogee_km":483.98752336654,"semimajor_km":6861.1282875392,"source":"CELESTRAK","updated_at":"2026-05-25T13:38:21.517683Z"}}